INTELSAT 39 (IS-39)

Last updated on Sun Apr 12 2026 00:02:55 GMT+0000 (Coordinated Universal Time)

1 44476U 19049B 26101.53299743 .00000035 00000+0 00000+0 0 9996 2 44476 0.0015 172.6173 0000402 3.3360 277.6215 1.00271145 24457
UTC large
Height (km)
Speed (km/s)
/
Latitude / Longitude
Inclination (degrees)
Orbital Period (minutes)
Azimuth
Elevation
Range (km)
Doppler Factor

Next 0 passes for location: London (51.5072 / 0.1276)

Sorry there are no passes over London.
INTELSAT 39 (IS-39)